Location: *
(33.3200°N, 8.3381°W)
Time: 16:54:23
(UTC+00:00)

SPOT 3 Rocket - Pass Details

Date: 09 April 2020
Orbit: 779 x 795 km, 98.8° (Epoch: 26 May)

Event Time Altitude Azimuth Distance (km) Brightness Sun altitude
Exits shadow 21:03:23 43° 189° (S) 1,095 4.1 -25.1°
Maximum altitude 21:05:01 70° 257° (WSW) 844 3.7 -25.3°
Drops below altitude 10° 21:10:13 10° 342° (NNW) 2,359 6.6 -26.3°
Sets 21:12:34 0° 344° (NNW) 3,289 7.4 -26.7°
